Regional Weather Roundup
Issued by NWS

Home | Current Version | Previous Version | Text Only | Print | Product List | Glossary On
Versions: 1 2 3 4 5 6 7 8 9 10 11 12 13 14 15 16 17 18 19 20 21 22 23 24 25 26 27 28 29 30 31 32 33 34 35 36 37 38 39 40 41 42 43 44 45 46 47 48 49 50
000
ASUS43 KMKX 242021
RWRWI

WISCONSIN REGIONAL WEATHER ROUNDUP
NATIONAL WEATHER SERVICE MILWAUKEE/SULLIVAN WI
300 PM CDT SUN SEP 24 2017

NOTE: "FAIR" INDICATES FEW OR NO CLOUDS BELOW 12,000 FEET WITH NO
SIGNIFICANT WEATHER AND/OR OBSTRUCTIONS TO VISIBILITY.

WIZ001-002-006>008-014>016-023>028-242100-
NORTHWEST WISCONSIN

CITY           SKY/WX    TMP DP  RH WIND       PRES   REMARKS
SUPERIOR ARPT  MOSUNNY   69  64  85 NE6       29.89F
ASHLAND        MOSUNNY   89  64  43 S15G23    29.91F HX  90
HAYWARD        CLOUDY    85  62  46 S20       29.94F HX  85
SIREN          MOSUNNY   87  61  41 S15G22    29.90F HX  87
CUMBERLAND     MOSUNNY   82  61  47 S15       29.94F HX  83
RICE LAKE      MOSUNNY   87  61  42 S12G18    29.95F HX  86
CHETEK         MOSUNNY   86  65  49 SW10G21   29.95S HX  87
LADYSMITH      MOSUNNY   85  59  41 S16G23    29.98S HX  84
EAU CLAIRE     MOSUNNY   88  61  40 S14       29.94F HX  88
MENOMONIE      MOSUNNY   87  63  44 S15       29.93F HX  88
NEW RICHMOND   MOSUNNY   88  58  35 S16G22    29.91F HX  87
OSCEOLA        MOSUNNY   89  60  38 S12G23    29.92F HX  88
$$

WIZ003>005-009-010-017-018-242100-
NORTH CENTRAL WISCONSIN

CITY           SKY/WX    TMP DP  RH WIND       PRES   REMARKS
MANITOWISH WTR NOT AVBL
ARBOR VITAE    SUNNY     85  59  41 SW13G23   30.00S HX  85
WOODRUFF       SUNNY     85  59  41 SW13G23   30.00S HX  85
RHINELANDER    MOSUNNY   86  62  44 S12       30.02F HX  86
EAGLE RIVER    MOSUNNY   84  56  39 S8        30.01S HX  83
LAND O LAKES   MOSUNNY   87  56  35 S10G21    30.02F HX  85
PHILLIPS       SUNNY     85  60  42 SW14G21   29.97F HX  85
TOMAHAWK       SUNNY     86  60  41 S7        30.01S HX  85
MEDFORD        MOSUNNY   85  60  42 S13G20    30.00S HX  85
MERRILL        MOSUNNY   88  62  41 S10G17    30.00F HX  88
$$

WIZ029-030-035-036-043>047-242100-
CENTRAL WISCONSIN

CITY           SKY/WX    TMP DP  RH WIND       PRES   REMARKS
WAUSAU         MOSUNNY   86  61  42 S10       29.99F HX  86
MOSINEE        MOSUNNY   86  61  42 S9        30.01F HX  86
MARSHFIELD     SUNNY     87  57  35 S16G22    29.99F HX  86
STEVENS POINT  SUNNY     86  60  41 S10G16    30.01S HX  86
WAUPACA        SUNNY     91  62  38 S9        30.01S HX  91
WAUTOMA        SUNNY     89  63  41 S10G17    30.00F HX  90
WISC RAPIDS    SUNNY     89  61  38 SW14      30.01F HX  89
CAMP DOUGLAS   MOSUNNY   90  61  37 SW9       29.99F HX  89
$$

WIZ011>013-019>022-031-037>040-048>050-242100-
NORTHEAST WISCONSIN

CITY           SKY/WX    TMP DP  RH WIND       PRES   REMARKS
ANTIGO         MOSUNNY   85  63  47 S10G21    30.03F HX  86
SHAWANO        MOSUNNY   90  62  39 S9        30.00S HX  90
OCONTO         SUNNY     88  66  48 S8        30.00F HX  91
STURGEON BAY   SUNNY     85  66  53 S12       30.03F HX  87
GREEN BAY      SUNNY     89  65  44 S8        30.01F HX  91
MANITOWOC      SUNNY     80  67  64 SE12      30.04F HX  82
APPLETON       MOSUNNY   86  57  37 S13       30.01F HX  85
CLINTONVILLE   SUNNY     90  59  35 S13       30.01F HX  89
OSHKOSH        MOSUNNY   87  64  46 SW8       30.01F HX  88
$$

WIZ032>034-041-042-053>061-242100-
SOUTHWEST WISCONSIN

CITY           SKY/WX    TMP DP  RH WIND       PRES   REMARKS
LA CROSSE      SUNNY     93  60  33 S15       29.95F HX  93
SPARTA         SUNNY     89  60  38 S12       29.98F HX  89
VIROQUA        MOSUNNY   88  59  38 S9        30.00F HX  87
BOSCOBEL       SUNNY     91  60  35 S7        29.98F HX  90
PRAIRIE DU CHI SUNNY     90  57  32 SE8       29.96F HX  88
PLATTEVILLE    SUNNY     89  60  38 S14G20    30.02S HX  88
$$

WIZ056-057-062-063-064-067-068-242100-
SOUTH CENTRAL WISCONSIN

CITY           SKY/WX    TMP DP  RH WIND       PRES   REMARKS
REEDSBURG      SUNNY     89  61  38 S8        29.99F HX  89
BARABOO/DELLS  SUNNY     89  53  29 S9G20     30.00F HX  86
LONE ROCK      SUNNY     89  61  38 S12       29.98F HX  89
MINERAL POINT  SUNNY     90  55  31 S13       30.02F HX  88
MADISON        SUNNY     89  59  36 S12G21    30.01F HX  88
MIDDLETON      SUNNY     91  55  29 S12G17    30.01F HX  89
WATERTOWN      SUNNY     88  62  41 S9        30.01F HX  88
MONROE         SUNNY     88  52  29 S13G18    30.02F HX  85
JANESVILLE     SUNNY     91  52  25 S13G18    30.01F HX  89
$$

WIZ051-052-058>065-066-070>072-242100-
SOUTHEAST WISCONSIN

CITY           SKY/WX    TMP DP  RH WIND       PRES   REMARKS
MILWAUKEE      MOSUNNY   88  66  48 SE15      30.03F HX  90
WAUKESHA       MOSUNNY   88  57  35 SE10G17   30.04F HX  86
MILWAUKEE/TIMM MOSUNNY   90  52  27 S9G17     30.03F HX  87
RACINE         SUNNY     87  64  46 SE12      30.05F HX  88
BURLINGTON     SUNNY     91  61  36 S9        30.02F HX  91
KENOSHA        SUNNY     90  62  39 SE12      30.04F HX  90
FOND DU LAC    SUNNY     88  60  38 S9        30.01F HX  87
SHEBOYGAN      SUNNY     86  68  54 S10       30.03F HX  89
WEST BEND        N/A     88  61  40 SE6       30.03F HX  88
JUNEAU         SUNNY     87  62  43 SE10G17   30.03F HX  87
$$

LSZ147-162-242100-
LAKE SUPERIOR

STATION/POSITION TIME  TEMP    WIND        PRES    WAVE
                       AIR SEA DIR/SP/G            HT/PER
                 (UTC) (F)     (DEG/KT/KT) (MB)    (FT/S)
W MID LAKE BUOY  1950   65 60   60/  2/  4 1012.6F   0
DEVILS ISLAND    2000   64      50/  5/  5 1012.4F
SAXON HARBOR     1940   88     210/  9/ 16 1012.2F
$$

LMZ867-665-643>646-242100-
LAKE MICHIGAN

STATION/POSITION TIME  TEMP    WIND        PRES    WAVE
                       AIR SEA DIR/SP/G            HT/PER
                 (UTC) (F)     (DEG/KT/KT) (MB)    (FT/S)
S GREEN BAY BUOY 2000   83 70  170/  4/  6 1016.0
N MID LAKE BUOY  1950   69 67  180/  6/  8 1017.7F   1/ 3
NORTHPORT PIER   1940   74     140/  7/  9 1016.3F
KEWAUNEE LAKESHO 1954   68     180/  9/  9 1016.4F
SHEBOYGAN LAKESH 2000   71     170/ 11/ 11 1016.5F
PORT WASHINGTON  1940   77     140/  3/  4 1017.9F
ATWATER BUOY     1909   71 66  150/  8/ 10 1017.5F
MILWAUKEE LAKESH 2000   70     140/ 13/ 14   N/A
S MID LAKE BUOY  1950   73 72  140/  6/  6 1017.8F   1
KENOSHA   LAKESH 2000   78     140/  8/ 10 1016.6
$$

TC  - TEMPERATURE IN CELSIUS
VSB - VISIBILITY IN STATUTE MILES
WCI - WIND CHILL INDEX
HX  - HEAT INDEX





USA.gov is the U.S. government's official web portal to all federal, state and local government web resources and services.